Location: Newark
(58.8333°N, 23.5833°E)
Time: 01:05:08
(UTC+00:00)

A-11 Canister half - Pass Details

Date: 26 November 2019
Orbit: 1515 x 1685 km, 47.2° (Epoch: 13 December)

Event Time Altitude Azimuth Distance (km) Brightness Sun altitude
Rises 19:33:29 0° 275° (W) 4,929 12.3 -42.6°
Reaches altitude 10° 19:37:05 10° 266° (W) 3,948 11.5 -43.0°
Enters shadow 19:43:14 29° 231° (SW) 2,757 10.3 -43.6°
Maximum altitude 19:45:29 31° 210° (SSW) 2,638 - -43.9°
Drops below altitude 10° 19:53:51 10° 153° (SSE) 3,920 - -44.7°
Sets 19:57:26 0° 144° (SE) 4,890 - -45.0°
